Location: Horowhenua
(40.7500°S, 175.3333°E)
Time: 16:10:08
(UTC+00:00)

SL-24 DEB - Pass Details

Date: 29 September 2023
Orbit: 654 x 688 km, 92.0° (Epoch: 01 December)

Event Time Altitude Azimuth Distance (km) Brightness Sun altitude
Rises 14:37:24 0° 160° (SSE) 3,026 8.4 -35.1°
Reaches altitude 10° 14:40:11 10° 143° (SE) 2,109 7.5 -34.8°
Maximum altitude 14:43:38 20° 95° (E) 1,525 6.5 -34.3°
Enters shadow 14:43:54 20° 90° (E) 1,529 6.4 -34.2°
